Location: *
(49.7154°N, 12.9800°E)
Time: 18:17:58
(UTC+00:00)

Daily predictions for brighter satellites

Satellite Brightness Start Highest point End
(mag) Time Altitude Azimuth Time Altitude Azimuth Time Altitude Azimuth
IRS-1A Rocket 4.4 18:06:09 10° SSE 18:11:47 67° ENE 18:17:35 10° NNW
STARLINK-1225 3.9 18:10:12 10° WSW 18:14:20 72° NNW 18:18:29 10° ENE
STARLINK-1205 3.7 18:11:55 10° W 18:14:58 48° N 18:18:01 10° ENE
STARLINK-1204 3.7 18:12:22 10° W 18:15:25 48° N 18:18:28 10° ENE
USA 186 2.2 18:12:57 10° SSE 18:16:13 46° ENE 18:19:22 10° N
STARLINK-1104 4.3 18:13:55 10° WNW 18:17:57 51° SSW 18:21:58 10° SE
Cosmos 1269 Rocket 4.4 18:13:17 10° SSW 18:18:34 75° WNW 18:23:55 10° NNE
STARLINK-1230 3.9 18:15:12 10° W 18:19:20 69° NNW 18:23:28 10° ENE
STARLINK-1144 4.4 18:18:54 10° WNW 18:22:54 48° SSW 18:26:53 10° SE
ATLAS CENTAUR R/B 4.2 18:22:53 10° NNW 18:23:45 11° N 18:24:37 10° N
STARLINK-1243 4.0 18:20:11 10° W 18:24:19 67° NNW 18:28:27 10° ENE
STARLINK-1209 3.7 18:21:36 10° WNW 18:24:27 41° N 18:27:16 10° ENE
ARGOS Delta rocket 4.2 18:22:07 10° SSE 18:27:22 87° WSW 18:32:52 10° NNW
Cosmos 292 Rocket 3.8 18:22:36 10° NNW 18:27:25 74° ENE 18:32:13 10° SSE
STARLINK-1103 4.5 18:23:53 10° WNW 18:27:51 45° SW 18:31:48 10° SE
Cosmos 2251 Rocket 3.9 18:24:02 10° S 18:29:05 45° ESE 18:34:12 10° NE
STARLINK-1236 4.0 18:25:14 10° W 18:29:21 65° NNW 18:33:29 10° ENE
NOSS 3-4 (A) 4.3 18:24:05 10° NW 18:30:36 47° NE 18:37:30 11° ESE
NOSS 3-4 (C) 4.3 18:24:11 10° NW 18:30:42 47° NE 18:37:35 11° ESE
ERBS 4.3 18:28:34 10° WNW 18:31:23 24° N 18:34:12 10° NE
Cosmos 1953 2.7 18:28:19 10° SSE 18:32:03 41° E 18:35:49 10° NNE
Cosmos 1455 Rocket 4.2 18:27:55 10° SSW 18:32:08 49° WNW 18:36:25 10° N
MONITOR-E 3.7 18:30:12 10° SSE 18:32:50 69° ENE 18:35:27 10° N
Cosmos 2315 Rocket 4.1 18:29:06 10° S 18:35:26 87° E 18:41:51 10° N
Cosmos 1626 Rocket 4.0 18:33:50 10° NNW 18:38:13 66° W 18:42:30 10° S
Resurs 01 Rocket 2.6 18:34:55 11° ESE 18:38:32 29° ENE 18:42:20 10° N
Cosmos 2369 Rocket 2.2 18:33:01 10° NNW 18:38:47 85° ENE 18:44:27 10° SSE
FREGAT/IRIS 2.4 18:36:06 10° S 18:38:49 82° WSW 18:41:33 10° NNW
STARLINK-1269 4.1 18:35:11 10° W 18:39:18 61° NNW 18:43:25 10° ENE
Aureole 3 3.9 18:35:47 10° S 18:40:14 65° E 18:45:59 10° NNE
Cosmos 1626 3.8 18:37:23 10° NNW 18:40:49 36° W 18:44:14 10° SSW
NOSS 3-3 (A) 4.1 18:35:56 10° SSW 18:41:31 48° ESE 18:47:48 10° NE
NOSS 3-3 (C) 4.2 18:36:02 10° SSW 18:41:37 47° ESE 18:47:54 10° NE
STARLINK-1200 4.1 18:40:10 10° W 18:44:17 60° N 18:48:24 10° ENE
Cosmos 1943 Rocket 2.5 18:39:16 10° NNW 18:44:47 70° WSW 18:50:19 10° SSE
IRIDIUM 104 4.3 18:39:46 10° N 18:45:00 67° E 18:50:11 10° SSE
Cosmos 1437 2.9 18:42:08 10° N 18:45:05 44° ENE 18:47:33 13° SSE
ADEOS Rocket 4.2 18:39:04 10° N 18:45:29 50° WNW 18:51:16 10° SW
SL-8 R/B 4.1 18:41:21 10° W 18:46:01 54° SSW 18:49:51 15° SE
CZ-2C R/B 4.1 18:43:12 10° NNE 18:47:45 44° E 18:52:12 10° S
Cosmos 1602 Rocket 4.0 18:43:33 10° NNW 18:47:59 68° W 18:52:22 10° S
STARLINK-1192 4.1 18:45:11 10° W 18:49:17 58° N 18:53:23 10° ENE
Cosmos 1470 3.5 18:48:46 10° SSW 18:52:35 56° WNW 18:56:28 10° N
Cosmos 2263 4.2 18:48:28 10° NNW 18:54:07 83° ENE 18:59:32 11° SSE
IRIDIUM 114 4.3 18:48:55 10° N 18:54:11 80° E 18:59:24 10° S
STARLINK-1244 4.1 18:50:11 10° W 18:54:16 57° N 18:58:17 11° ENE
Cosmos 1908 4.1 18:52:23 13° SE 18:55:09 28° E 18:58:29 10° NNE
Ariane Rocket 3.8 18:51:32 10° S 18:56:28 52° W 19:01:26 10° NNW
STARLINK-1138 4.2 18:55:11 10° W 18:59:17 56° N 19:03:05 12° ENE
Aureole 2 Rocket 3.4 18:56:12 10° NW 18:59:35 47° WSW 19:02:54 10° S
Abrixas rocket 2.0 18:56:55 10° WSW 18:59:50 58° S 19:01:18 25° E
STARLINK-67 3.4 18:58:09 10° WNW 19:00:37 40° N 19:01:57 21° ENE
Cosmos 2074 Rocket 4.0 18:54:29 10° N 19:00:49 79° E 19:07:07 10° SSE
Cosmos 1726 Rocket 4.1 18:57:52 10° SSE 19:01:54 37° E 19:06:00 10° NNE
IRIDIUM 103 4.4 18:58:06 10° N 19:03:21 87° W 19:08:35 10° S
ATLAS 2AS CENTAUR R/B 3.0 18:55:39 10° NW 19:03:22 66° NE 19:08:47 19° ESE
STARLINK-1143 4.2 19:00:08 10° W 19:04:13 55° N 19:07:48 13° ENE
Cosmos 1943 3.3 18:59:09 10° S 19:04:37 54° ESE 19:10:10 10° NE
ISS -2.1 19:02:21 10° W 19:05:13 26° SW 19:07:16 15° SSE
Cosmos 1825 Rocket 3.5 19:01:19 10° N 19:05:45 76° E 19:10:02 11° SSE
USA 234 3.7 18:59:57 10° ENE 19:05:58 38° SE 19:11:57 10° SSW
SL-08 RB Rocket 3.9 19:04:13 10° S 19:08:44 73° WSW 19:13:21 10° NNW
Spot 2 Rocket 4.3 19:06:11 20° ESE 19:08:59 34° ENE 19:13:34 10° N
STARLINK-1241 4.2 19:05:12 10° W 19:09:16 54° N 19:12:39 15° ENE
SPOT 3 Rocket 3.6 19:07:37 10° SSE 19:12:51 85° WSW 19:18:06 10° NNW
STARLINK-1239 4.2 19:10:12 10° W 19:14:16 54° N 19:17:25 16° ENE
SeaSat 1 4.5 19:11:54 10° NNE 19:16:12 31° NW 19:20:29 10° WSW
Cosmos 1610 Rocket 4.4 19:10:03 10° N 19:16:17 69° ENE 19:21:46 13° SSE
Cosmos 1758 Rocket 3.8 19:13:10 10° NNW 19:17:31 70° W 19:21:48 10° S
STARLINK-1240 4.2 19:15:11 10° W 19:19:16 53° N 19:22:12 18° ENE
SJ-6B 4.0 19:15:24 10° S 19:19:20 45° W 19:23:20 10° NNW
MOS 1 Rocket 3.6 19:17:05 10° NNE 19:22:22 62° E 19:27:44 10° S
STARLINK-1216 4.2 19:20:12 10° W 19:24:16 53° N 19:27:00 20° ENE
Cosmos 1953 Rocket 3.5 19:20:15 10° N 19:24:44 81° ENE 19:27:52 20° SSE
CZ-4C R/B 4.3 19:19:40 10° NW 19:24:48 25° N 19:30:42 10° ENE
SL-16 R/B 4.0 19:21:09 10° WSW 19:26:16 34° NW 19:31:24 10° NNE
CZ-2C R/B 4.4 19:24:31 10° SSW 19:29:01 35° W 19:33:27 10° NNW
STARLINK-1237 4.2 19:25:13 10° W 19:29:17 53° N 19:31:47 21° ENE
Terra 3.5 19:28:43 16° ENE 19:29:43 17° ENE 19:32:48 10° NNE
Cosmos 1818 3.6 19:24:31 10° SSW 19:29:50 58° ESE 19:35:12 10° NE
Cosmos 1606 Rocket 3.5 19:25:32 10° S 19:29:57 86° ESE 19:34:27 10° N
Cosmos 921 Rocket 3.5 19:27:49 10° N 19:31:48 41° ENE 19:32:50 34° E
BREEZE M DEB (TANK) 3.8 19:24:54 10° SW 19:33:25 40° SSE 19:34:30 34° SE
STARLINK-1233 3.6 19:30:41 10° WNW 19:33:45 46° N 19:34:36 35° NE
Cosmos 614 Rocket 4.1 19:28:47 10° S 19:33:51 53° ESE 19:38:56 10° NNE
SL-24 R/B 4.2 19:29:46 10° N 19:34:11 71° WNW 19:38:04 10° SSW
STARLINK-1212 3.6 19:31:08 10° WNW 19:34:12 46° N 19:35:01 36° NE
STARLINK-1202 4.2 19:30:12 10° WNW 19:34:16 53° N 19:36:33 24° ENE
CZ-2C R/B 2.4 19:29:12 10° NNE 19:34:24 71° ESE 19:39:34 10° S
STARLINK-1105 3.6 19:31:36 10° WNW 19:34:39 47° N 19:35:29 36° NE
Cosmos 407 Rocket 3.7 19:30:02 10° S 19:34:55 45° ESE 19:39:48 10° NE
STARLINK-1206 3.6 19:32:05 10° WNW 19:35:07 46° N 19:35:53 37° NE
STARLINK-1247 3.6 19:32:31 10° WNW 19:35:34 46° N 19:36:19 37° NE
STARLINK-1203 4.2 19:31:34 10° WNW 19:35:36 52° N 19:37:45 25° ENE
STARLINK-1227 3.6 19:32:56 10° WNW 19:35:59 47° N 19:36:46 37° NE
Cosmos 2228 3.0 19:31:44 10° S 19:36:01 87° W 19:40:23 10° N
STARLINK-1218 3.6 19:33:26 10° WNW 19:36:28 47° N 19:37:12 38° NE
Cosmos 1656 Rocket 3.8 19:30:55 10° NNW 19:36:36 74° WSW 19:40:14 23° SSE
STARLINK-1226 3.6 19:33:51 10° WNW 19:36:54 47° N 19:37:37 38° NE
STARLINK-1254 3.6 19:34:17 10° WNW 19:37:21 47° N 19:38:04 38° NE
STARLINK-1215 3.6 19:34:47 10° WNW 19:37:50 47° N 19:38:29 39° NE
SPOT 1/Viking Rocket 4.2 19:36:24 30° ESE 19:38:11 40° ENE 19:43:02 10° N
STARLINK-1231 3.6 19:35:15 10° WNW 19:38:18 47° N 19:38:56 39° NE
STARLINK-1232 3.6 19:36:08 10° WNW 19:39:11 47° N 19:39:48 40° NE
STARLINK-1217 3.6 19:36:36 10° WNW 19:39:38 47° N 19:40:14 41° NE
STARLINK-1208 3.6 19:37:00 10° WNW 19:40:05 48° N 19:40:40 41° NE
IGS 5A 4.1 19:39:45 35° E 19:40:22 38° ENE 19:44:14 10° N
STARLINK-1229 3.5 19:37:28 10° WNW 19:40:31 47° N 19:41:04 41° NE
STARLINK-1271 3.5 19:37:56 10° WNW 19:40:59 48° N 19:41:32 42° NE
STARLINK-1270 3.5 19:38:24 10° WNW 19:41:27 48° N 19:41:57 42° NE
STARLINK-1154 3.5 19:38:50 10° WNW 19:41:53 48° N 19:42:23 43° NE
Cosmos 1295 Rocket 4.4 19:35:53 10° N 19:42:11 78° E 19:46:25 23° SSE
SAR-Lupe-2 3.7 19:38:48 10° NNE 19:42:09 49° E 19:42:09 49° E
STARLINK-1197 3.5 19:39:44 10° WNW 19:42:47 48° N 19:43:15 43° NE
STARLINK-1189 3.5 19:40:13 10° WNW 19:43:15 48° N 19:43:42 44° NE
STARLINK-1198 3.5 19:40:39 10° WNW 19:43:42 48° N 19:44:07 44° NE
STARLINK-1188 3.5 19:41:06 10° WNW 19:44:09 48° N 19:44:33 45° NE
STARLINK-1246 4.2 19:40:10 10° WNW 19:44:14 53° N 19:46:06 29° ENE
STARLINK-1235 3.3 19:41:45 10° WNW 19:44:51 53° NNE 19:45:11 50° NE
STARLINK-1187 3.4 19:42:04 10° WNW 19:45:11 51° NNE 19:45:33 47° NE
Cosmos 2341 Rocket 4.1 19:38:58 10° N 19:45:20 64° ENE 19:48:37 30° SSE
BREEZE-M DEB (TANK) 3.5 19:40:21 10° WNW 19:45:32 48° SSW 19:45:58 44° S
COSMOS 2455 3.1 19:39:47 10° NNW 19:45:45 58° NE 19:48:18 33° ESE
SL-4 R/B 3.6 19:42:50 10° SSW 19:43:45 16° SSW 19:43:45 16° SSW
STARLINK-1199 3.4 19:43:01 10° WNW 19:46:07 49° N 19:46:28 46° NE
STARLINK-1191 3.4 19:43:29 10° WNW 19:46:34 49° N 19:46:54 47° NE
STARLINK-1201 3.6 19:43:40 10° WNW 19:46:52 50° N 19:47:21 45° NE
STARLINK-1210 3.4 19:43:56 10° WNW 19:47:01 50° N 19:47:20 47° NNE
STARLINK-1221 3.4 19:44:23 10° WNW 19:47:28 50° N 19:47:46 47° NNE
STARLINK-1219 3.4 19:44:50 10° WNW 19:47:55 50° N 19:48:12 48° NNE
Cosmos 1603 4.1 19:42:41 10° SW 19:48:16 64° WNW 19:53:53 10° NNE
STARLINK-1222 3.4 19:45:18 10° WNW 19:48:23 50° N 19:48:38 48° NNE
Cosmos 1726 3.6 19:45:02 10° SW 19:48:32 37° WNW 19:52:03 10° N
Cosmos 1980 Rocket 4.4 19:46:08 10° N 19:48:41 13° NNE 19:51:13 10° NE
Cosmos 1340 Rocket 2.7 19:47:46 45° SSE 19:48:49 65° E 19:52:51 10° NNE
STARLINK-1211 3.4 19:45:45 10° WNW 19:48:50 50° N 19:49:04 48° NNE
ERS-1 Rocket 3.6 19:47:59 33° E 19:49:05 38° ENE 19:53:43 10° N
STARLINK-1214 3.4 19:46:12 10° WNW 19:49:17 50° N 19:49:31 49° NNE
STARLINK-1224 4.2 19:45:13 10° WNW 19:49:18 53° N 19:50:56 32° ENE
STARLINK-1234 3.2 19:46:39 10° WNW 19:49:39 55° NNE 19:49:39 55° NNE
STARLINK-1228 3.2 19:46:48 10° WNW 19:49:30 54° N 19:49:30 54° N
STARLINK-1245 3.4 19:46:40 10° WNW 19:49:44 50° N 19:49:55 49° NNE
STARLINK-1238 3.4 19:47:06 10° WNW 19:50:11 51° N 19:50:23 49° NNE
STARLINK-1205 3.4 19:48:03 10° WNW 19:51:06 50° N 19:51:14 50° NNE
H-2A R/B 4.3 19:47:02 10° SW 19:51:09 23° W 19:55:11 10° NW
STARLINK-1204 3.4 19:48:29 10° WNW 19:51:33 51° NNE 19:51:39 50° NNE
STARLINK-1225 4.2 19:50:11 10° WNW 19:54:15 53° N 19:55:40 35° ENE
Cosmos 1892 4.3 19:54:23 10° NNE 19:56:50 23° NE 19:56:50 23° NE
STARLINK-1230 4.1 19:55:11 10° WNW 19:59:16 54° N 20:00:28 39° ENE
STARLINK-1209 3.6 19:57:01 10° WNW 19:59:26 49° NNW 19:59:26 49° NNW
STARLINK-1243 4.1 20:00:09 10° WNW 20:04:14 55° N 20:05:14 42° NE
ATLAS CENTAUR R/B 3.8 20:02:31 10° N 20:04:27 13° NNE 20:06:08 10° NE
Cosmos 2218 Rocket 4.1 19:59:58 10° N 20:06:05 57° ENE 20:07:52 42° SE
Cosmos 1461 3.0 20:02:42 10° NW 20:07:13 88° NE 20:07:55 64° SE
ERBS 3.8 20:05:25 10° NW 20:08:26 29° NNE 20:08:37 29° NNE
STARLINK-1236 4.1 20:05:12 10° WNW 20:09:17 55° N 20:10:04 47° NE
Cosmos 1076 Rocket 4.0 20:07:26 10° N 20:11:09 44° ENE 20:11:09 44° ENE
Cosmos 1023 Rocket 4.3 20:11:23 39° S 20:13:17 72° ESE 20:18:26 10° NNE
Resurs 01 Rocket 2.9 20:12:28 20° SSW 20:14:56 36° W 20:19:02 10° NNW
ATLAS 5 CENTAUR R/B 4.0 20:20:51 12° NE 20:20:51 12° NE 20:21:13 10° NE
Cosmos 1825 4.5 20:16:04 10° NNE 20:17:15 15° NE 20:17:15 15° NE
In-Cosmos 22 Rocket 4.3 20:13:11 10° N 20:19:00 67° ENE 20:20:12 53° SE
STARLINK-1269 4.0 20:15:08 10° WNW 20:19:14 57° N 20:19:36 55° NNE
USA 245 4.3 20:18:18 41° S 20:20:20 75° WSW 20:26:34 10° NNW
Cosmos 2181 Rocket 3.9 20:18:41 43° SSE 20:20:44 69° E 20:26:55 10° NNE
Cosmos 2058 Rocket 3.7 20:18:19 24° SSW 20:20:54 57° WNW 20:25:23 10° N
NOSS 3-4 (A) 4.1 20:15:00 10° NW 20:21:51 61° SW 20:24:57 36° S
NOSS 3-4 (C) 4.1 20:15:06 10° NW 20:21:58 62° SW 20:25:03 36° S
Cosmos 1300 3.2 20:23:46 54° N 20:23:46 54° N 20:26:48 10° N
STARLINK-1200 3.9 20:20:07 10° WNW 20:24:14 59° N 20:24:22 58° NNE
Landsat 7 3.8 20:24:18 62° S 20:25:03 79° WSW 20:29:51 10° NNW
Cosmos 1763 Rocket 4.0 20:23:36 10° NNW 20:28:35 42° ENE 20:28:47 42° ENE
STARLINK-1192 4.0 20:25:06 10° WNW 20:29:09 60° N 20:29:09 60° N
SL-8 Rocket 4.0 20:24:32 10° N 20:30:52 85° W 20:32:55 47° S
STARLINK-1244 4.0 20:30:06 10° WNW 20:33:56 59° N 20:33:56 59° N
Cosmos 864 Rocket 4.4 20:29:05 10° N 20:35:22 82° E 20:36:39 58° SSE
CARTOSAT-1 3.7 20:36:52 68° N 20:36:52 68° N 20:40:44 10° NNW
Cosmos 2058 3.4 20:34:37 10° N 20:37:54 55° N 20:37:54 55° N
SPOT 5 2.7 20:39:20 68° NNE 20:39:20 68° NNE 20:43:10 10° NNW
STARLINK-1138 4.1 20:35:06 10° WNW 20:38:43 57° NNW 20:38:43 57° NNW
SL-24 R/B - RUBIN 2 4.2 20:33:44 10° SW 20:39:24 85° SE 20:45:49 10° NE
Cosmos 2366 rocket 3.9 20:35:03 10° N 20:41:14 88° W 20:42:31 59° S
STARLINK-1143 4.3 20:40:02 10° WNW 20:43:27 54° NW 20:43:27 54° NW
Cosmos 1190 Rocket 4.5 20:40:52 16° SW 20:45:02 61° WNW 20:50:18 10° NNE
STARLINK-1241 4.4 20:45:04 10° WNW 20:48:17 50° NW 20:48:17 50° NW
USA 234 3.2 20:42:51 10° ENE 20:49:25 84° NNW 20:55:58 10° WSW
Cosmos 540 Rocket 4.5 20:45:05 10° N 20:49:35 34° NE 20:49:35 34° NE
Cosmos 1140 Rocket 4.0 20:51:23 29° SW 20:53:53 58° WNW 20:59:00 10° NNE
ATLAS 2AS CENTAUR R/B 3.7 20:47:11 10° NW 20:54:00 39° WSW 20:56:14 31° SSW
Iridium 4 Rocket 3.7 20:53:07 10° N 20:56:43 52° NW 20:56:43 52° NW
Cosmos 1570 Rocket 4.5 20:52:32 10° NNW 20:57:27 50° NE 20:57:27 50° NE
Meteor 2-12 Rocket 4.3 20:53:06 10° NNW 20:59:15 83° W 20:59:54 72° SSW
Cosmos 1812 Rocket 4.4 21:00:32 48° N 21:00:32 48° N 21:03:46 10° N
RESURS DK-1 4.0 20:57:00 10° NNW 20:59:42 30° NNE 20:59:42 30° NNE
Cosmos 841 Rocket 4.2 20:57:02 10° NNW 21:01:39 45° NE 21:01:39 45° NE
BREEZE M DEB (TANK) 3.6 21:02:08 66° SSE 21:02:14 66° SSE 21:16:50 10° ENE
Terra 2.2 21:07:36 63° NW 21:07:36 63° NW 21:11:41 10° NNW
Cosmos 1697 Rocket 3.3 21:01:33 10° NNW 21:06:58 45° NE 21:06:58 45° NE
Cosmos 468 Rocket 4.1 21:04:57 10° NNW 21:09:34 69° NW 21:09:34 69° NW
Cosmos 676 Rocket 4.5 21:12:05 52° W 21:12:54 58° WNW 21:18:06 10° NNE
CZ-4C R/B 3.6 21:08:37 10° NW 21:15:03 44° NNE 21:17:32 34° ENE
Mayak 0.9 21:12:03 10° NNE 21:13:23 19° NNE 21:13:23 19° NNE
SL-16 R/B 4.3 21:13:09 10° N 21:16:41 16° NNE 21:18:42 14° ENE
SL-08 R/B 4.4 21:10:37 10° NNW 21:16:43 72° W 21:17:08 70° SW
Meteor 2-10 Rocket 4.3 21:20:36 46° NNE 21:20:36 46° NNE 21:24:24 10° NNE
Cosmos 2239 Rocket 4.5 21:16:02 10° N 21:21:59 70° ENE 21:21:59 70° ENE
Cosmos 1821 Rocket 3.9 21:17:36 10° N 21:23:55 82° ENE 21:23:55 82° ENE
Cosmos 489 Rocket 4.4 21:20:54 10° NNW 21:26:55 84° NNW 21:26:55 84° NNW
ERS-1 Rocket 4.2 21:27:58 34° W 21:27:58 34° W 21:32:30 10° NNW
Cosmos 2322 Rocket 4.3 21:24:33 10° N 21:28:06 17° NNE 21:30:00 14° NE
COSMOS 2455 4.0 21:26:08 10° NW 21:31:25 33° WSW 21:31:27 33° WSW
ASTEX 1 4.2 21:33:47 48° N 21:33:47 48° N 21:37:23 10° N
Cosmos 1980 Rocket 3.1 21:29:00 10° NNW 21:33:52 40° NE 21:33:52 40° NE
Cosmos 1934 Rocket 4.2 21:29:57 10° N 21:35:38 62° NE 21:35:38 62° NE
ATLAS CENTAUR R/B 3.7 21:40:43 10° NNW 21:42:19 21° NNW 21:42:19 21° NNW
Cosmos 1656 4.3 21:45:55 10° NW 21:50:24 50° WNW 21:50:24 50° WNW
Cosmos 2278 4.3 21:47:39 10° NNW 21:52:13 53° N 21:52:13 53° N
Cosmos 2082 Rocket 4.0 22:02:45 21° NE 22:02:45 21° NE 22:04:47 10° NE
ATLAS 5 CENTAUR R/B 3.3 22:02:16 32° N 22:02:16 32° N 22:06:03 10° NE
COSMOS 2406 4.0 22:09:22 47° NNE 22:09:22 47° NNE 22:13:23 10° NNE
Cosmos 1833 Rocket 3.9 22:21:36 36° NNE 22:21:36 36° NNE 22:24:51 10° NNE
USA 234 4.0 22:25:52 10° ENE 22:32:08 50° N 22:38:23 10° W
Cosmos 1697 Rocket 4.3 22:45:45 10° NW 22:48:42 27° WNW 22:48:42 27° WNW
Mayak 1.4 22:48:26 10° NNW 22:49:57 16° NW 22:49:57 16° NW
Cosmos 1727 Rocket 4.5 22:59:22 57° N 22:59:22 57° N 23:04:18 10° N
SL-16 R/B 3.2 22:56:27 10° NNW 23:00:33 43° N 23:00:33 43° N
Cosmos 1459 Rocket 4.5 22:56:10 10° N 23:01:18 57° NNE 23:01:18 57° NNE
CZ-4C R/B 3.2 22:57:04 10° NW 23:02:43 58° WNW 23:02:43 58° WNW
Cosmos 2360 Rocket 3.5 23:05:58 10° NNW 23:10:45 34° NE 23:10:45 34° NE
Cosmos 2333 Rocket 4.4 23:08:07 10° N 23:12:12 20° NE 23:15:07 14° ENE
Cosmos 2322 Rocket 3.2 23:07:48 10° NNW 23:11:48 43° N 23:11:48 43° N
Cosmos 2100 Rocket 4.5 23:08:09 10° N 23:12:54 56° N 23:12:54 56° N
Cosmos 1980 Rocket 3.9 23:13:07 10° NW 23:15:38 25° WNW 23:15:38 25° WNW
Resurs 1-4 Rocket 4.3 23:33:31 10° NE 23:36:00 17° ENE 23:36:00 17° ENE
Cosmos 2344 4.5 23:28:54 10° NW 23:38:22 58° WSW 23:38:51 58° SW
Cosmos 2082 Rocket 3.3 23:44:35 39° NNW 23:44:35 39° NNW 23:49:01 10° NNE
ATLAS 5 CENTAUR R/B 4.4 23:44:17 10° NW 23:47:37 18° N 23:51:18 10° NE
CZ-2D R/B 4.0 23:45:15 10° NE 23:48:41 22° ENE 23:48:41 22° ENE
